Lid_Strength_Index
2 2 2 1 1 1 1 1 2 1 0 1 0 0 0 0 0 0 1 1 1 1 1 1 1 0 1 1 1 1 2 2 4 2 1 1 1 1 0 0 -1 -0 0
2 2 2 1 1 1 1 1 2 1 0 1 0 1 1 1 0 1 1 1 1 1 1 1 1 0 1 1 1 1 2 1 2 4 2 2 1 1 1 1 0 -0 0
2 2 2 2 2 2 1 1 1 1 1 1 1 1 1 1 1 1 1 1 1 1 1 1 1 1 1 1 1 1 1 1 1 2 3 2 1 1 1 1 1 1 0
2 2 2 2 2 2 2 2 1 2 1 1 1 1 1 1 1 1 1 1 1 1 0 0 1 1 1 1 1 1 2 2 2 3 3 3 2 1 1 2 3 2 2
2 2 2 2 2 3 3 3 3 2 2 1 1 1 1 1 1 1 1 1 1 1 1 0 0 0 2 2 3 3 3 3 3 4 4 4 3 2 3 2 3 3 2
2 2 2 2 2 3 3 3 3 2 2 1 1 1 1 1 4 4 1 1 1 1 1 1 0 1 2 4 4 4 3 3 3 4 4 4 4 3 3 3 4 4 4
2 2 2 2 2 2 3 3 3 3 3 2 1 1 1 1 7 6 4 1 1 1 1 1 1 1 1 1 4 4 4 5 5 4 4 4 3 3 3 4 4 4 4
2 2 2 2 2 2 2 2 3 3 2 1 1 1 1 1 8 8 6 1 1 1 1 1 1 1 1 2 2 3 3 3 2 4 5 4 2 2 2 3 4 4 3
2 2 2 2 2 2 2 2 2 2 2 2 1 1 1 1 9 8 3 1 1 1 1 0 0 1 5 7 4 4 5 4 3 5 6 7 8 8 6 4 5 5 5
2 2 2 2 2 2 2 2 2 2 2 1 2 1 2 3 11 9 3 1 2 1 1 1 4 3 6 8 4 5 6 5 4 4 5 5 4 3 5 5 4 5 4
1 1 1 2 2 2 2 2 2 2 2 2 2 1 2 6 8 10 8 1 1 2 1 1 7 10 10 10 10 6 6 7 6 6 5 5 4 4 3 2 3 3 4
1 1 2 3 3 3 3 2 2 2 2 3 2 2 3 6 10 10 10 10 8 4 4 3 8 10 10 10 10 9 9 9 6 6 5 5 5 4 2 2 2 2 1
1 2 2 4 4 5 6 7 7 7 5 3 3 5 8 8 9 11 11 10 10 6 5 8 10 11 11 10 11 10 10 7 6 6 6 5 4 3 2 2 2 2 3
2 2 2 2 4 5 6 8 9 9 9 11 8 6 7 8 8 9 9 10 10 9 7 5 7 9 10 8 8 7 6 5 5 5 4 4 3 3 4 4 5 6 8
2 2 2 2 2 6 8 9 10 10 8 10 10 11 10 10 12 11 8 7 7 11 10 6 7 7 6 5 4 3 3 3 3 4 4 4 5 5 5 5 7 8 9
2 2 2 2 2 4 6 7 11 11 11 12 12 11 11 13 13 14 12 13 13 13 9 8 8 7 6 5 4 4 4 5 5 5 5 6 6 6 6 7 8 8 9
2 2 2 2 2 4 4 5 7 9 10 11 12 12 12 12 13 13 13 13 14 13 10 8 7 6 4 4 5 5 6 5 5 6 7 6 7 7 10 9 9 8 9
1 4 2 2 3 2 3 4 6 6 7 8 10 11 11 12 13 13 13 13 10 13 8 7 6 5 6 6 6 6 6 7 7 7 8 8 8 9 10 9 9 9 9
2 2 2 2 2 3 3 4 4 5 5 7 8 11 12 12 12 13 13 10 8 8 8 7 7 7 7 7 7 7 8 8 8 8 8 9 9 10 10 10 9 12 11
1 4 3 4 4 4 4 4 5 5 4 4 5 8 9 11 8 9 9 8 8 8 8 8 8 8 7 8 8 9 9 9 9 9 9 9 10 10 10 9 9 10 9
1 3 5 2 2 3 3 4 4 4 4 5 6 7 12 9 7 8 8 8 8 8 8 9 9 8 9 9 9 9 9 9 9 9 10 10 10 11 9 9 9 9 9
2 2 3 2 2 3 3 3 4 4 5 5 5 7 13 7 7 7 6 7 7 7 7 8 8 8 8 9 9 9 9 9 9 10 10 10 10 8 9 8 9 9 9
2 3 3 3 3 6 3 4 4 4 5 5 5 5 5 5 6 7 8 7 7 7 7 7 7 7 8 8 8 8 9 10 10 10 11 9 9 8 8 8 8 9 9
2 2 3 3 3 4 4 4 4 7 5 5 5 4 4 4 5 6 6 6 6 5 6 6 6 7 7 8 9 10 10 10 10 11 10 9 9 9 8 8 8 7 8
2 2 3 3 4 4 3 4 4 5 5 5 5 5 4 4 4 5 5 4 4 4 4 4 6 6 7 10 11 11 13 14 14 13 12 11 11 10 9 7 7 7 7
2 3 3 3 3 3 3 4 4 5 5 5 6 5 4 4 4 4 3 3 3 4 4 4 6 6 7 10 12 14 15 15 14 13 12 11 11 10 8 6 7 7 8